TIANQI-14

Satellite information

Favourite Embed

Satellite Type and Status

PAYLOADIN ORBIT

Key statistics

Satellite TIANQI-14 at a glance.

Uptime

1544

Days in orbit

Revolutions

≈ 15.1

Per day

Orbit

LEO

Low Earth Orbit

Inclination

35.0

Latest

Satellite identification and parameters

Extended collection of information and parameters for TIANQI-14.

Object identification

Identified? True

Debris? False

Object name: TIANQI-14

International designator: 2021-055E

Object number (NORAD): 48864

Object ID (CCSDS): 48864

Country: PEOPLES REPUBLIC OF CHINA (PRC)

Current information (Y/N): Y

RCS size: MEDIUM

Orbital parameters

Period: 95.434 minutes

Inclination: 35.0011 deg

SMA: 6917.711 km

Apoapsis: 543.48 km

Periapsis: 535.671 km

RAAN: 18.9852 deg

Eccentricy: 0.00056441

Argument of periapsis: 337.3099 deg

Mean anomaly: 22.7361 deg

Mean motion: 15.08895567 rev/day

Mean motion (dot): 0.00007438 rev/day2

B* drag term: 0.00046325563 1/REarth

Two-line elements (TLE)

Creation date: Sept. 8, 2025, 6:18 p.m.

Reference frame: TEME

Reference center: EARTH

Epoch: Sept. 8, 2025, 11:33 a.m. UTC

TLE line 0: 0 TIANQI-14

TLE line 1: 1 48864U 21055E 25251.48141663 .00007438 00000-0 46326-3 0 9997

TLE line 2: 2 48864 35.0011 18.9852 0005644 337.3099 22.7361 15.08895567231076

Live tracking on map

Real-time ground track for satellite TIANQI-14.

In-orbit conjunctions

There are no conjunctions computed for TIANQI-14, at the moment. Check back to stay up to date, as we update our databases every day.

Go to all conjunctions

Associated space launch

The Yaogan-30 is a series of military remote sensing satellites which are launched in triplets. The satellites are spaced by 120° in their orbit.

TIANQI-14 was lifted into orbit during the mission ‘Long March 2C | Yaogan-30-09’, on board a Long March 2 space rocket.

The launch took place on June 18, 2021, 6:30 a.m. from Launch Complex 3 (LC-3/LA-1).

For more information about the launch, click the button.

Launch to space Long March 2C | Yaogan-30-09
Long March 2C | Yaogan-30-09

Agency: N/A

Status: Launch Successful

Launch date: June 18, 2021, 6:30 a.m. UTC

Rocket: Long March 2

Launch pad: Launch Complex 3 (LC-3/LA-1)

Location: Xichang Satellite Launch Center, People's Republic of China

...

Latest news about this satellite

News about space launch
China launches Chang Zheng 2C with trio of Yaogan-30 satellites

China has successfully launched a Chang Zheng 2C (also known as the Long March 2C) from teh Xichang Satellite Launch Center with three new Yaogan-30 satellites on June 18 at 06:30 UTC / 14:30 local time at the launch site from LC-3 after a 24 hour delay d...

News about space launch
China launches new group of classified Yaogan-30 satellites

China launched a group of classified Yaogan-30 satellites and one commercial satellite on a Long March 2C rocket early Friday.


Newsletter sign-up

Weekly statistics, charts and insights to help you stay on top of the space industry.